• In Kazakhstan
  • List of Countries
  • For 7 days
  • Water Temperature
  • Satellite Maps
  • Weather Map
  • News
  • Weather Widgets
  • user-avatar
    Login

    Hourly Weather Bursa

    Today, 17 August, Thursday

    Time Temperature Precipitation Wind Pressure Humidity
    00:00 +21°C° 0.1 mm 1 mps 727 mmHg 95%
    01:00 +21°C° 0.1 mm 1 mps 727 mmHg 94%
    02:00 +21°C° 0 mm 1 mps 727 mmHg 95%
    03:00 +21°C° 0.3 mm 1 mps 727 mmHg 95%
    04:00 +21°C° 0.3 mm 1 mps 727 mmHg 95%
    05:00 +21°C° 0.3 mm 1 mps 727 mmHg 95%
    06:00 +21°C° 0.2 mm 2 mps 727 mmHg 89%
    07:00 +23°C° 0.2 mm 2 mps 727 mmHg 83%
    08:00 +25°C° 0 mm 2 mps 727 mmHg 75%
    09:00 +26°C° 0.2 mm 2 mps 727 mmHg 69%
    10:00 +28°C° 0.2 mm 3 mps 727 mmHg 62%
    11:00 +29°C° 0.2 mm 4 mps 727 mmHg 56%
    12:00 +30°C° 0.1 mm 4 mps 727 mmHg 53%
    13:00 +30°C° 0.1 mm 5 mps 727 mmHg 51%
    14:00 +32°C° 0.1 mm 6 mps 727 mmHg 49%
    15:00 +30°C° 0.1 mm 6 mps 727 mmHg 51%
    16:00 +30°C° 0.1 mm 6 mps 727 mmHg 53%
    17:00 +29°C° 0.1 mm 6 mps 728 mmHg 55%
    18:00 +27°C° 0 mm 5 mps 728 mmHg 62%
    19:00 +25°C° 0 mm 4 mps 728 mmHg 69%
    20:00 +22°C° 0 mm 3 mps 728 mmHg 76%
    21:00 +22°C° 0 mm 3 mps 728 mmHg 79%
    22:00 +21°C° 0 mm 2 mps 729 mmHg 83%
    23:00 +20°C° 0 mm 2 mps 729 mmHg 86%

    Tomorrow, 18 August, Friday

    Time Temperature Precipitation Wind Pressure Humidity
    00:00 +21°C° 0 mm 1 mps 729 mmHg 86%
    01:00 +20°C° 0 mm 1 mps 729 mmHg 87%
    02:00 +20°C° 0 mm 1 mps 729 mmHg 87%
    03:00 +20°C° 0 mm 1 mps 728 mmHg 86%
    04:00 +20°C° 0 mm 1 mps 728 mmHg 86%
    05:00 +19°C° 0 mm 1 mps 728 mmHg 85%
    06:00 +21°C° 0 mm 1 mps 729 mmHg 77%
    07:00 +23°C° 0 mm 1 mps 729 mmHg 70%
    08:00 +25°C° 0 mm 2 mps 729 mmHg 63%
    09:00 +27°C° 0 mm 2 mps 729 mmHg 57%
    10:00 +28°C° 0 mm 3 mps 729 mmHg 51%
    11:00 +30°C° 0 mm 4 mps 729 mmHg 45%
    12:00 +32°C° 0 mm 4 mps 729 mmHg 44%
    13:00 +32°C° 0 mm 5 mps 729 mmHg 43%
    14:00 +33°C° 0 mm 5 mps 729 mmHg 42%
    15:00 +32°C° 0 mm 5 mps 729 mmHg 44%
    16:00 +30°C° 0 mm 5 mps 729 mmHg 45%
    17:00 +30°C° 0 mm 5 mps 729 mmHg 47%
    18:00 +28°C° 0 mm 4 mps 729 mmHg 55%
    19:00 +25°C° 0 mm 3 mps 729 mmHg 62%
    20:00 +23°C° 0 mm 2 mps 730 mmHg 70%
    21:00 +23°C° 0 mm 2 mps 730 mmHg 73%
    22:00 +22°C° 0 mm 1 mps 730 mmHg 77%
    23:00 +21°C° 0 mm 1 mps 730 mmHg 81%

    Day after tomorrow, 19 August, Saturday

    Time Temperature Precipitation Wind Pressure Humidity
    00:00 +21°C° 0 mm 1 mps 730 mmHg 81%
    01:00 +20°C° 0 mm 1 mps 730 mmHg 82%
    02:00 +20°C° 0 mm 1 mps 730 mmHg 82%
    03:00 +20°C° 0 mm 1 mps 730 mmHg 83%
    04:00 +20°C° 0 mm 1 mps 730 mmHg 84%
    05:00 +19°C° 0 mm 1 mps 730 mmHg 84%
    06:00 +21°C° 0 mm 1 mps 730 mmHg 78%
    07:00 +23°C° 0 mm 1 mps 730 mmHg 72%
    08:00 +25°C° 0 mm 1 mps 730 mmHg 66%
    09:00 +26°C° 0 mm 2 mps 730 mmHg 59%
    10:00 +28°C° 0 mm 2 mps 730 mmHg 52%
    11:00 +30°C° 0 mm 3 mps 730 mmHg 45%
    12:00 +30°C° 0 mm 3 mps 730 mmHg 43%
    13:00 +31°C° 0 mm 3 mps 730 mmHg 41%
    14:00 +33°C° 0 mm 4 mps 729 mmHg 39%
    15:00 +32°C° 0 mm 4 mps 729 mmHg 40%
    16:00 +32°C° 0 mm 4 mps 729 mmHg 41%
    17:00 +30°C° 0 mm 4 mps 729 mmHg 43%
    18:00 +28°C° 0 mm 3 mps 729 mmHg 49%
    19:00 +26°C° 0 mm 2 mps 729 mmHg 55%
    20:00 +23°C° 0 mm 1 mps 730 mmHg 62%
    21:00 +23°C° 0 mm 1 mps 730 mmHg 63%
    22:00 +22°C° 0 mm 1 mps 730 mmHg 64%
    23:00 +22°C° 0 mm 1 mps 730 mmHg 65%

    20 August, Sunday

    Time Temperature Precipitation Wind Pressure Humidity
    00:00 +22°C° 0 mm 1 mps 730 mmHg 65%
    01:00 +21°C° 0 mm 1 mps 730 mmHg 65%
    02:00 +21°C° 0 mm 1 mps 730 mmHg 65%
    03:00 +19°C° 0 mm 0 mps 729 mmHg 64%
    04:00 +18°C° 0 mm 0 mps 729 mmHg 64%
    05:00 +18°C° 0 mm 0 mps 729 mmHg 63%
    06:00 +20°C° 0 mm 0 mps 730 mmHg 57%
    07:00 +22°C° 0 mm 0 mps 730 mmHg 51%
    08:00 +25°C° 0 mm 0 mps 730 mmHg 45%
    09:00 +28°C° 0 mm 1 mps 730 mmHg 42%
    10:00 +30°C° 0 mm 2 mps 730 mmHg 39%
    11:00 +31°C° 0 mm 2 mps 730 mmHg 36%
    12:00 +32°C° 0 mm 2 mps 729 mmHg 35%
    13:00 +33°C° 0 mm 3 mps 729 mmHg 34%
    14:00 +34°C° 0 mm 3 mps 729 mmHg 33%
    15:00 +34°C° 0 mm 3 mps 729 mmHg 36%
    16:00 +33°C° 0 mm 3 mps 728 mmHg 39%
    17:00 +31°C° 0 mm 3 mps 728 mmHg 43%
    18:00 +29°C° 0 mm 3 mps 728 mmHg 54%
    19:00 +27°C° 0 mm 2 mps 728 mmHg 65%
    20:00 +24°C° 0 mm 1 mps 729 mmHg 76%
    21:00 +24°C° 0.1 mm 1 mps 729 mmHg 79%
    22:00 +23°C° 0.1 mm 1 mps 729 mmHg 82%
    23:00 +23°C° 0.1 mm 1 mps 729 mmHg 85%

    21 August, Monday

    Time Temperature Precipitation Wind Pressure Humidity
    00:00 +22°C° 0 mm 1 mps 728 mmHg 85%
    01:00 +20°C° 0 mm 0 mps 728 mmHg 86%
    02:00 +20°C° 0 mm 0 mps 728 mmHg 86%
    03:00 +20°C° 0 mm 0 mps 728 mmHg 86%
    04:00 +19°C° 0 mm 0 mps 727 mmHg 86%
    05:00 +19°C° 0 mm 0 mps 727 mmHg 86%
    06:00 +21°C° 0 mm 0 mps 728 mmHg 80%
    07:00 +22°C° 0 mm 0 mps 728 mmHg 74%
    08:00 +23°C° 0 mm 0 mps 728 mmHg 67%
    09:00 +26°C° 0.1 mm 1 mps 728 mmHg 62%
    10:00 +27°C° 0.1 mm 1 mps 728 mmHg 57%
    11:00 +28°C° 0.1 mm 1 mps 728 mmHg 51%
    12:00 +29°C° 0 mm 2 mps 728 mmHg 47%
    13:00 +31°C° 0 mm 3 mps 727 mmHg 42%
    14:00 +33°C° 0 mm 3 mps 727 mmHg 37%
    15:00 +32°C° 0 mm 4 mps 727 mmHg 40%
    16:00 +30°C° 0 mm 4 mps 727 mmHg 43%
    17:00 +30°C° 0 mm 4 mps 727 mmHg 46%
    18:00 +28°C° 0 mm 3 mps 727 mmHg 57%
    19:00 +25°C° 0 mm 3 mps 727 mmHg 67%
    20:00 +23°C° 0 mm 2 mps 728 mmHg 78%
    21:00 +21°C° 0 mm 2 mps 728 mmHg 82%
    22:00 +21°C° 0 mm 2 mps 728 mmHg 85%
    23:00 +20°C° 0 mm 2 mps 728 mmHg 88%

    22 August, Tuesday

    Time Temperature Precipitation Wind Pressure Humidity
    00:00 +20°C° 0 mm 2 mps 728 mmHg 89%
    01:00 +19°C° 0 mm 2 mps 728 mmHg 91%
    02:00 +19°C° 0 mm 2 mps 728 mmHg 92%
    03:00 +19°C° 0.1 mm 2 mps 728 mmHg 92%
    04:00 +19°C° 0.1 mm 2 mps 728 mmHg 93%
    05:00 +20°C° 0.1 mm 1 mps 729 mmHg 93%
    06:00 +19°C° 0.7 mm 2 mps 729 mmHg 90%
    07:00 +20°C° 0.7 mm 2 mps 729 mmHg 87%
    08:00 +21°C° 0.7 mm 2 mps 729 mmHg 84%
    09:00 +21°C° 0.4 mm 3 mps 729 mmHg 81%
    10:00 +22°C° 0.4 mm 3 mps 729 mmHg 77%
    11:00 +22°C° 0.4 mm 4 mps 729 mmHg 74%
    12:00 +23°C° 0.3 mm 4 mps 729 mmHg 72%
    13:00 +23°C° 0.3 mm 4 mps 729 mmHg 69%
    14:00 +23°C° 0.3 mm 4 mps 729 mmHg 67%
    15:00 +23°C° 0.1 mm 4 mps 729 mmHg 66%
    16:00 +22°C° 0.1 mm 4 mps 730 mmHg 66%
    17:00 +22°C° 0.1 mm 4 mps 730 mmHg 65%
    18:00 +21°C° 0 mm 3 mps 730 mmHg 72%
    19:00 +19°C° 0 mm 2 mps 730 mmHg 79%
    20:00 +17°C° 0 mm 2 mps 731 mmHg 86%
    21:00 +17°C° 0 mm 2 mps 731 mmHg 87%
    22:00 +16°C° 0 mm 1 mps 731 mmHg 88%
    23:00 +16°C° 0 mm 1 mps 731 mmHg 89%
    Show more